Dublin, Ireland

11:25 PM GMT on November 24, 2017 (GMT +0000)
Dublin International

Weather History for EIDW - May, 2012

Change the Weather History Date:

Wednesday, May 16, 2012

  Actual Average Record
Temperature  
Mean Temperature 43 °F -  
Max Temperature 51 °F 61 °F 69 °F (2004)
Min Temperature 35 °F 47 °F 35 °F (2012)
Degree Days  
Heating Degree Days 22    
Moisture  
Dew Point 37 °F    
Average Humidity 73    
Maximum Humidity 93    
Minimum Humidity 43    
Precipitation  
Precipitation 0.00 in 0.07 in - ()
Sea Level Pressure  
Sea Level Pressure 30.27 in    
Wind  
Wind Speed 8 mph ()    
Max Wind Speed 13 mph    
Max Gust Speed -    
Visibility 6.5 miles    
Events Rain    
Averages and records for this station are not official NWS values.
T = Trace of Precipitation, MM = Missing Value Source: Averaged Metar Reports

Daily Weather History Graph

Daily Weather History Graph

Search for Another Location

Airport or City:

Trip Planner

Search our weather history database for the weather conditions in past years. The results will help you decide how hot, cold, wet, or windy it might be!

Date:

Astronomy

May. 16, 2012 Rise Set
Actual Time 5:22 AM IST 9:21 PM IST
Civil Twilight 4:37 AM IST 10:06 PM IST
Nautical Twilight 3:33 AM IST 11:11 PM IST
Astronomical Twilight 1:53 AM IST 12:48 AM IST
Moon 3:20 AM IST (5/16) 4:53 PM IST (5/16)
Length of Visible Light 17h 28m
Length of Day
15h 58m
Waning Crescent, 18% of the Moon is Illuminated
May 16
Waning Crescent
May 21
New
May 28
First Quarter
Jun 4
Full
Jun 11
Last Quarter

Hourly Weather History & Observations

Time (IST) Temp. Windchill Dew Point Humidity Pressure Visibility Wind Dir Wind Speed Gust Speed Precip Events Conditions
12:00 AM 35.6 °F 29.2 °F 33.8 °F 93% 30.30 in 6.2 mi WNW 8.1 mph - N/A   Partly Cloudy
12:30 AM 37.4 °F 31.4 °F 33.8 °F 87% 30.30 in 6.2 mi West 8.1 mph - N/A   Partly Cloudy
1:00 AM 37 °F - 33 °F 82% 30.33 in 31 mi West 8.9 mph - -   Scattered Clouds
1:00 AM 37.4 °F 31.4 °F 33.8 °F 87% 30.30 in 6.2 mi West 8.1 mph - N/A   Partly Cloudy
1:30 AM 37.4 °F 31.4 °F 33.8 °F 87% 30.30 in 6.2 mi West 8.1 mph - N/A   Partly Cloudy
2:00 AM 35.6 °F 28.6 °F 33.8 °F 93% 30.30 in 6.2 mi West 9.2 mph - N/A   Scattered Clouds
2:30 AM 35.6 °F 28.0 °F 33.8 °F 93% 30.30 in 6.2 mi West 10.4 mph - N/A   Scattered Clouds
3:00 AM 37.4 °F 30.3 °F 33.8 °F 87% 30.30 in 6.2 mi West 10.4 mph - N/A   Partly Cloudy
3:30 AM 37.4 °F 30.8 °F 33.8 °F 87% 30.30 in 6.2 mi West 9.2 mph - N/A   Scattered Clouds
4:00 AM 35.6 °F 28.6 °F 33.8 °F 93% 30.30 in 6.2 mi West 9.2 mph - N/A   Mostly Cloudy
4:30 AM 37.4 °F 31.4 °F 33.8 °F 87% 30.30 in 6.2 mi West 8.1 mph - N/A   Mostly Cloudy
5:00 AM 37.4 °F 30.8 °F 33.8 °F 87% 30.30 in 6.2 mi West 9.2 mph - N/A   Scattered Clouds
5:30 AM 37.4 °F 30.3 °F 33.8 °F 87% 30.30 in 6.2 mi West 10.4 mph - N/A   Mostly Cloudy
6:00 AM 37.4 °F 30.3 °F 33.8 °F 87% 30.30 in 6.2 mi West 10.4 mph - N/A   Mostly Cloudy
6:30 AM 39.2 °F 32.5 °F 35.6 °F 87% 30.30 in - WSW 10.4 mph - N/A   Clear
7:00 AM 39 °F - 36 °F 84% 30.32 in 31 mi WSW 11.2 mph - -   Scattered Clouds
7:00 AM 39.2 °F 32.5 °F 35.6 °F 87% 30.30 in - WSW 10.4 mph - N/A   Clear
7:30 AM 41.0 °F 34.7 °F 37.4 °F 87% 30.30 in - WSW 10.4 mph - N/A   Clear
8:00 AM 41.0 °F 33.9 °F 37.4 °F 87% 30.30 in - West 12.7 mph - N/A   Clear
8:30 AM 42.8 °F 36.6 °F 37.4 °F 81% 30.30 in 6.2 mi WSW 11.5 mph - N/A   Mostly Cloudy
9:00 AM 44.6 °F 38.4 °F 37.4 °F 76% 30.30 in 6.2 mi WSW 12.7 mph - N/A   Mostly Cloudy
9:30 AM 44.6 °F 38.4 °F 39.2 °F 81% 30.30 in 6.2 mi West 12.7 mph - N/A   Mostly Cloudy
10:00 AM 48.2 °F - 39.2 °F 71% 30.30 in 6.2 mi West 12.7 mph - N/A   Mostly Cloudy
10:30 AM 50.0 °F - 39.2 °F 66% 30.30 in 6.2 mi West 11.5 mph - N/A   Scattered Clouds
11:00 AM 48.2 °F - 37.4 °F 66% 30.30 in 6.2 mi West 10.4 mph - N/A   Mostly Cloudy
11:30 AM 48.2 °F - 37.4 °F 66% 30.30 in 6.2 mi West 11.5 mph - N/A   Mostly Cloudy
12:00 PM 48.2 °F - 35.6 °F 62% 30.30 in 6.2 mi West 12.7 mph - N/A   Mostly Cloudy
12:30 PM 50.0 °F - 33.8 °F 54% 30.30 in 6.2 mi West 9.2 mph - N/A   Mostly Cloudy
1:00 PM 50 °F - 34 °F 43% 30.31 in 37 mi West 11.2 mph - -   Mostly Cloudy
1:00 PM 50.0 °F - 33.8 °F 54% 30.30 in 6.2 mi West 10.4 mph - N/A   Mostly Cloudy
1:30 PM 50.0 °F - 35.6 °F 58% 30.30 in 6.2 mi West 8.1 mph - N/A   Mostly Cloudy
2:00 PM 51.8 °F - 37.4 °F 58% 30.30 in 6.2 mi SW 9.2 mph - N/A   Mostly Cloudy
2:30 PM 50.0 °F - 35.6 °F 58% 30.27 in 6.2 mi SW 9.2 mph - N/A   Mostly Cloudy
3:00 PM 51.8 °F - 35.6 °F 54% 30.27 in 6.2 mi SW 8.1 mph - N/A   Mostly Cloudy
3:30 PM 50.0 °F - 35.6 °F 58% 30.27 in 6.2 mi WSW 8.1 mph - N/A   Mostly Cloudy
4:00 PM 50.0 °F - 35.6 °F 58% 30.27 in 6.2 mi SW 9.2 mph - N/A   Mostly Cloudy
4:30 PM 50.0 °F - 37.4 °F 62% 30.24 in 6.2 mi SW 6.9 mph - N/A   Mostly Cloudy
5:00 PM 50.0 °F - 37.4 °F 62% 30.24 in 6.2 mi WSW 9.2 mph - N/A   Mostly Cloudy
5:30 PM 51.8 °F - 37.4 °F 58% 30.24 in 6.2 mi SW 5.8 mph - N/A   Mostly Cloudy
6:00 PM 51.8 °F - 37.4 °F 58% 30.21 in 6.2 mi SW 5.8 mph - N/A   Mostly Cloudy
6:30 PM 51.8 °F - 37.4 °F 58% 30.21 in 6.2 mi SE 6.9 mph - N/A   Mostly Cloudy
7:00 PM 51 °F - 37 °F 48% 30.23 in 19 mi SE 6.7 mph - -   Overcast
7:00 PM 51.8 °F - 37.4 °F 58% 30.21 in 6.2 mi SE 5.8 mph - N/A   Mostly Cloudy
7:30 PM 51.8 °F - 37.4 °F 58% 30.21 in 6.2 mi SE 6.9 mph - N/A   Mostly Cloudy
8:00 PM 50.0 °F - 37.4 °F 62% 30.21 in 6.2 mi SE 5.8 mph - N/A   Mostly Cloudy
8:30 PM 50.0 °F - 37.4 °F 62% 30.18 in 6.2 mi Variable 3.5 mph - N/A   Mostly Cloudy
9:00 PM 50.0 °F - 41.0 °F 71% 30.18 in 6.2 mi SE 5.8 mph - N/A   Mostly Cloudy
9:30 PM 48.2 °F - 41.0 °F 76% 30.18 in 6.2 mi Variable 3.5 mph - N/A Rain Light Rain
10:00 PM 48.2 °F - 42.8 °F 82% 30.18 in 6.2 mi SE 4.6 mph - N/A Rain Light Rain
10:30 PM 46.4 °F - 42.8 °F 87% 30.18 in 6.2 mi SSE 2.3 mph - N/A Rain Light Rain
11:00 PM 46.4 °F 44.3 °F 42.8 °F 87% 30.18 in 6.2 mi WSW 4.6 mph - N/A Rain Light Rain
11:30 PM 46.4 °F 42.9 °F 42.8 °F 87% 30.18 in 5.6 mi SW 6.9 mph - N/A Rain Light Rain